period_start,C,m1,H,J0,J1,J2,J3,J4,J5,JA,JB,JC,JD,JJ,JK,JN,#
2018-08-10 00:01:12,0.03,1.37,0.00,28.65,32.27,34.68,13.57,42.79,1017.97,2004.97,2949.35,2679.00,3026.25,599.76,585.43,53.20,0000 0000 0000 0000 000000
2018-08-10 00:06:13,0.03,1.37,0.00,28.67,32.27,34.69,13.62,42.78,1017.87,2004.96,2948.78,2678.54,3025.89,600.05,585.56,53.25,0000 0000 0000 0000 000000
2018-08-10 00:11:14,0.09,1.38,0.00,28.70,32.29,34.71,13.56,42.78,1017.64,2004.94,2947.38,2677.30,3024.52,599.99,585.40,53.30,0000 0000 0000 0000 000000
2018-08-10 00:16:15,0.01,1.38,0.00,28.71,32.30,34.71,13.59,42.73,1017.62,2004.92,2946.65,2677.00,3024.00,599.80,585.28,53.35,0000 0000 0000 0000 000000
2018-08-10 00:21:16,0.04,1.38,0.00,28.74,32.30,34.72,13.63,42.77,1017.63,2004.95,2945.96,2676.69,3023.52,599.87,585.12,53.40,0000 0000 0000 0000 000000
2018-08-10 00:26:18,0.05,1.38,0.00,28.76,32.32,34.73,13.56,42.69,1017.61,2004.85,2944.90,2675.81,3022.73,599.84,585.10,53.45,0000 0000 0000 0000 000000
2018-08-10 00:31:19,0.05,1.38,0.00,28.78,32.32,34.74,13.61,42.81,1017.61,2004.62,2943.76,2674.93,3021.23,600.01,585.25,53.50,0000 0000 0000 0000 000000
2018-08-10 00:36:20,0.01,1.39,0.00,28.80,32.34,34.76,13.57,42.88,1017.59,2004.49,2942.95,2674.22,3020.84,599.85,584.97,53.55,0000 0000 0000 0000 000000
2018-08-10 00:41:22,0.01,1.39,0.00,28.82,32.35,34.77,13.51,42.73,1017.59,2004.18,2942.08,2673.95,3020.05,599.95,585.06,53.60,0000 0000 0000 0000 000000
2018-08-10 00:46:23,0.04,1.39,0.00,28.84,32.36,34.78,13.56,42.73,1017.59,2004.06,2941.33,2673.31,3019.52,599.78,584.93,53.65,0000 0000 0000 0000 000000
2018-08-10 00:51:24,0.02,1.39,0.00,28.86,32.37,34.80,13.57,42.73,1017.58,2004.05,2940.51,2672.99,3018.98,600.10,585.08,53.70,0000 0000 0000 0000 000000
2018-08-10 00:56:25,0.04,1.39,0.00,28.89,32.39,34.80,13.55,42.63,1017.48,2004.03,2939.85,2672.48,3018.24,599.72,584.75,53.76,0000 0000 0000 0000 000000
2018-08-10 01:01:27,0.02,1.39,0.00,28.91,32.40,34.82,13.57,42.74,1017.39,2004.02,2939.06,2672.02,3017.96,599.93,584.74,53.81,0000 0000 0000 0000 000000
2018-08-10 01:06:28,0.03,1.40,0.00,28.92,32.41,34.84,13.64,42.80,1017.21,2004.01,2938.42,2671.93,3017.22,600.33,585.03,53.86,0000 0000 0000 0000 000000
2018-08-10 01:11:30,0.04,1.40,0.00,28.95,32.42,34.85,13.57,42.69,1017.12,2004.00,2937.73,2671.22,3016.90,600.58,585.20,53.91,0000 0000 0000 0000 000000
2018-08-10 01:16:31,0.02,1.40,0.00,28.97,32.45,34.87,13.52,42.72,1017.12,2004.00,2936.98,2670.95,3016.11,600.19,584.73,53.96,0000 0000 0000 0000 000000
2018-08-10 01:21:33,0.05,1.40,0.00,29.00,32.46,34.88,13.57,42.85,1017.11,2004.00,2936.14,2670.19,3015.67,599.84,584.35,54.01,0000 0000 0000 0000 000000
2018-08-10 01:26:34,0.02,1.40,0.00,29.02,32.47,34.90,13.60,42.86,1017.11,2004.00,2935.59,2669.99,3015.03,600.10,584.54,54.06,0000 0000 0000 0000 000000
2018-08-10 01:31:35,0.05,1.41,0.00,29.04,32.50,34.91,13.59,42.69,1017.11,2003.98,2934.82,2669.41,3014.47,599.92,584.27,54.11,0000 0000 0000 0000 000000
2018-08-10 01:36:37,0.02,1.41,0.00,29.06,32.51,34.93,13.59,42.80,1017.11,2003.98,2934.04,2669.01,3014.00,600.46,584.68,54.16,0000 0000 0000 0000 000000
2018-08-10 01:41:38,0.04,1.41,0.00,29.09,32.52,34.95,13.53,42.73,1017.12,2003.96,2933.38,2668.84,3013.51,599.96,584.34,54.21,0000 0000 0000 0000 000000
2018-08-10 01:46:39,0.03,1.41,0.00,29.11,32.55,34.97,13.52,42.67,1017.11,2003.94,2932.79,2668.11,3012.99,599.82,584.03,54.26,0000 0000 0000 0000 000000
2018-08-10 01:51:40,0.02,1.41,0.00,29.14,32.56,34.98,13.58,42.86,1017.11,2003.85,2932.03,2667.97,3012.35,600.14,584.35,54.31,0000 0000 0000 0000 000000
2018-08-10 01:56:42,0.02,1.41,0.00,29.16,32.58,35.00,13.53,42.84,1017.11,2003.68,2931.37,2667.45,3011.99,599.59,583.92,54.36,0000 0000 0000 0000 000000
2018-08-10 02:01:43,-0.00,1.41,0.00,29.20,32.60,35.01,13.60,42.91,1017.10,2003.44,2930.85,2667.01,3011.37,600.39,584.38,54.41,0000 0000 0000 0000 000000
2018-08-10 02:06:44,0.02,1.41,0.00,29.21,32.62,35.04,13.55,42.85,1017.10,2003.12,2930.04,2666.62,3010.91,599.75,583.63,54.46,0000 0000 0000 0000 000000
2018-08-10 02:11:46,0.03,1.42,0.00,29.25,32.64,35.05,13.53,42.76,1017.10,2003.04,2929.30,2666.03,3010.14,600.13,584.27,54.51,0000 0000 0000 0000 000000
2018-08-10 02:16:47,0.01,1.42,0.00,29.28,32.65,35.07,13.55,42.77,1017.09,2003.01,2928.82,2665.94,3009.93,599.80,583.74,54.56,0000 0000 0000 0000 000000
2018-08-10 02:21:48,0.05,1.42,0.00,29.31,32.67,35.09,13.54,42.68,1017.05,2003.00,2928.05,2665.27,3009.16,599.98,583.85,54.61,0000 0000 0000 0000 000000
2018-08-10 02:26:49,0.02,1.42,0.00,29.34,32.70,35.11,13.51,42.52,1017.07,2003.00,2927.41,2664.99,3008.83,599.70,583.55,54.66,0000 0000 0000 0000 000000
2018-08-10 02:31:51,0.05,1.42,0.00,29.36,32.72,35.13,13.54,42.62,1017.03,2003.00,2926.66,2664.47,3008.07,599.91,583.63,54.72,0000 0000 0000 0000 000000
2018-08-10 02:36:52,0.01,1.42,0.00,29.40,32.74,35.14,13.49,42.61,1017.06,2003.00,2926.00,2664.01,3007.82,599.94,583.63,54.77,0000 0000 0000 0000 000000
2018-08-10 02:41:53,0.03,1.43,0.00,29.42,32.76,35.17,13.58,42.46,1016.99,2002.98,2925.24,2663.86,3007.06,600.17,583.81,54.82,0000 0000 0000 0000 000000
2018-08-10 02:46:54,0.03,1.43,0.00,29.46,32.79,35.19,13.55,42.45,1016.97,2002.93,2924.74,2663.09,3006.86,600.02,583.67,54.87,0000 0000 0000 0000 000000
2018-08-10 02:51:56,0.01,1.43,0.00,29.48,32.81,35.21,13.57,42.73,1016.88,2002.73,2923.99,2662.87,3006.08,600.33,583.74,54.92,0000 0000 0000 0000 000000
2018-08-10 02:56:58,0.01,1.43,0.00,29.51,32.84,35.25,13.54,42.49,1016.72,2002.32,2923.17,2662.13,3005.64,600.18,583.44,54.97,0000 0000 0000 0000 000000
2018-08-10 03:01:59,0.01,1.43,0.00,29.54,32.86,35.28,13.62,42.52,1016.66,2002.07,2922.47,2661.93,3005.00,600.25,583.44,55.02,0000 0000 0000 0000 000000
2018-08-10 03:07:00,0.04,1.43,0.00,29.57,32.88,35.30,13.51,42.53,1016.66,2002.02,2921.92,2661.23,3004.39,599.84,582.96,55.07,0000 0000 0000 0000 000000
2018-08-10 03:12:02,0.01,1.43,0.00,29.60,32.91,35.33,13.59,42.55,1016.64,2002.00,2921.10,2660.98,3003.97,600.19,583.25,55.12,0000 0000 0000 0000 000000
2018-08-10 03:17:03,0.05,1.43,0.00,29.63,32.94,35.36,13.58,42.53,1016.64,2002.00,2920.42,2660.36,3003.23,599.84,582.86,55.17,0000 0000 0000 0000 000000
2018-08-10 03:22:04,0.01,1.44,0.00,29.65,32.96,35.38,13.59,42.54,1016.62,2002.00,2919.90,2660.01,3002.90,600.21,583.10,55.22,0000 0000 0000 0000 000000
2018-08-10 03:27:05,0.04,1.44,0.00,29.67,32.98,35.40,13.56,42.45,1016.62,2001.99,2919.12,2659.72,3002.19,600.31,583.08,55.27,0000 0000 0000 0000 000000
2018-08-10 03:32:06,0.03,1.44,0.00,29.69,33.00,35.43,13.51,42.42,1016.62,2001.91,2918.33,2659.03,3001.62,599.75,582.70,55.32,0000 0000 0000 0000 000000
2018-08-10 03:37:07,-0.00,1.44,0.00,29.72,33.03,35.45,13.62,42.52,1016.62,2001.61,2917.64,2658.62,3001.01,600.35,583.24,55.37,0000 0000 0000 0000 000000
2018-08-10 03:42:08,0.02,1.44,0.00,29.73,33.06,35.49,13.52,42.34,1016.62,2001.42,2916.97,2658.05,3000.40,599.99,582.71,55.42,0000 0000 0000 0000 000000
2018-08-10 03:47:10,0.00,1.44,0.00,29.75,33.08,35.50,13.49,42.38,1016.61,2001.11,2916.13,2657.86,2999.99,599.71,582.43,55.47,0000 0000 0000 0000 000000
2018-08-10 03:52:11,0.05,1.44,0.00,29.77,33.10,35.52,13.44,42.42,1016.61,2001.06,2915.53,2657.11,2999.32,599.89,582.55,55.52,0000 0000 0000 0000 000000
2018-08-10 03:57:12,0.02,1.44,0.00,29.80,33.13,35.55,13.50,42.44,1016.61,2001.00,2914.81,2656.90,2998.76,600.00,582.63,55.57,0000 0000 0000 0000 000000
2018-08-10 04:02:13,0.04,1.45,0.00,29.82,33.15,35.57,13.51,42.32,1016.61,2001.00,2914.05,2656.15,2998.05,599.99,582.71,55.63,0000 0000 0000 0000 000000
2018-08-10 04:07:15,0.03,1.45,0.00,29.84,33.17,35.60,13.44,42.17,1016.51,2001.00,2913.28,2655.96,2997.54,599.84,582.27,55.68,0000 0000 0000 0000 000000
2018-08-10 04:12:16,0.05,1.45,0.00,29.86,33.20,35.62,13.48,42.33,1016.31,2000.98,2912.55,2655.19,2996.94,600.13,582.41,55.73,0000 0000 0000 0000 000000
2018-08-10 04:17:17,0.01,1.45,0.00,29.88,33.22,35.65,13.46,42.31,1016.27,2000.94,2911.95,2654.95,2996.19,599.81,582.12,55.78,0000 0000 0000 0000 000000
2018-08-10 04:22:18,0.04,1.45,0.00,29.90,33.24,35.67,13.51,42.30,1016.15,2000.92,2911.15,2654.33,2995.94,600.19,582.37,55.83,0000 0000 0000 0000 000000
2018-08-10 04:27:19,0.01,1.46,0.00,29.93,33.26,35.69,13.48,42.37,1016.14,2000.72,2910.41,2654.00,2995.17,599.66,581.83,55.88,0000 0000 0000 0000 000000
2018-08-10 04:32:21,0.02,1.46,0.00,29.95,33.29,35.71,13.47,42.44,1016.14,2000.47,2909.70,2653.57,2994.81,600.13,582.24,55.93,0000 0000 0000 0000 000000
2018-08-10 04:37:22,-0.00,1.46,0.00,29.96,33.31,35.73,13.42,42.16,1016.14,2000.30,2909.00,2653.03,2994.09,599.29,581.46,55.98,0000 0000 0000 0000 000000
2018-08-10 04:42:24,0.03,1.46,0.00,29.99,33.33,35.75,13.45,42.18,1016.13,2000.09,2908.22,2652.68,2993.65,600.03,582.07,56.03,0000 0000 0000 0000 000000
2018-08-10 04:47:25,0.03,1.46,0.00,30.00,33.35,35.77,13.52,42.38,1016.13,2000.00,2907.47,2652.03,2992.94,600.12,582.15,56.08,0000 0000 0000 0000 000000
2018-08-10 04:52:26,0.04,1.46,0.00,30.02,33.37,35.80,13.48,42.23,1016.13,2000.00,2906.72,2651.61,2992.13,599.83,581.79,56.13,0000 0000 0000 0000 000000
2018-08-10 04:57:27,0.02,1.46,0.00,30.04,33.39,35.80,13.46,42.33,1016.13,2000.00,2905.94,2651.03,2991.85,599.59,581.51,56.18,0000 0000 0000 0000 000000
2018-08-10 05:02:29,0.04,1.47,0.00,30.05,33.41,35.83,13.52,42.43,1016.12,2000.00,2905.11,2650.71,2991.09,600.29,582.14,56.23,0000 0000 0000 0000 000000
2018-08-10 05:07:30,0.04,1.47,0.00,30.07,33.43,35.85,13.48,42.33,1016.01,2000.00,2904.40,2650.03,2990.64,600.30,582.22,56.28,0000 0000 0000 0000 000000
2018-08-10 05:12:31,0.03,1.47,0.00,30.10,33.45,35.87,13.49,42.27,1015.85,1999.99,2903.75,2649.78,2989.99,599.92,581.55,56.33,0000 0000 0000 0000 000000
2018-08-10 05:17:32,0.03,1.47,0.00,30.12,33.47,35.88,13.44,42.33,1015.69,1999.90,2902.95,2649.07,2989.25,600.02,581.56,56.38,0000 0000 0000 0000 000000
2018-08-10 05:22:34,-0.01,1.47,0.00,30.13,33.49,35.91,13.51,42.50,1015.67,1999.56,2902.09,2648.81,2988.85,600.08,581.57,56.43,0000 0000 0000 0000 000000
2018-08-10 05:27:35,0.01,1.47,0.00,30.15,33.51,35.93,13.48,42.44,1015.65,1999.18,2901.30,2648.06,2988.05,599.85,581.29,56.48,0000 0000 0000 0000 000000
2018-08-10 05:32:36,0.03,1.47,0.00,30.17,33.53,35.94,13.50,42.24,1015.64,1999.13,2900.78,2647.91,2987.68,600.02,581.37,56.54,0000 0000 0000 0000 000000
2018-08-10 05:37:37,0.08,1.48,0.00,30.19,33.55,35.96,13.40,42.23,1015.64,1999.06,2899.37,2646.89,2986.61,599.80,581.15,56.59,0000 0000 0000 0000 000000
2018-08-10 05:42:39,0.11,1.48,0.00,30.21,33.57,35.98,13.48,42.25,1015.64,1999.01,2897.16,2645.55,2985.02,600.47,581.85,56.64,0000 0000 0000 0000 000000
2018-08-10 05:47:40,0.06,1.49,0.00,30.23,33.59,36.00,13.45,42.52,1015.64,1999.00,2895.78,2644.70,2984.02,600.10,581.45,56.69,0000 0000 0000 0000 000000
2018-08-10 05:52:42,0.05,1.49,0.00,30.25,33.61,36.02,13.49,42.47,1015.64,1999.00,2894.73,2644.01,2983.15,600.06,581.30,56.74,0000 0000 0000 0000 000000
2018-08-10 05:57:43,0.06,1.49,0.00,30.27,33.63,36.03,13.48,42.48,1015.64,1998.98,2893.63,2643.23,2982.30,600.08,581.37,56.79,0000 0000 0000 0000 000000
2018-08-10 06:02:44,0.06,1.50,0.00,30.28,33.65,36.06,13.50,42.54,1015.64,1998.96,2892.25,2642.56,2981.43,600.11,581.44,56.84,0000 0000 0000 0000 000000
2018-08-10 06:07:45,0.07,1.50,0.00,30.31,33.67,36.08,13.48,42.50,1015.63,1998.94,2890.81,2641.72,2980.36,599.87,581.07,56.89,0000 0000 0000 0000 000000
2018-08-10 06:12:47,0.06,1.50,0.00,30.33,33.69,36.10,13.48,42.52,1015.64,1998.86,2889.39,2640.79,2979.45,599.76,580.86,56.94,0000 0000 0000 0000 000000
2018-08-10 06:17:48,0.06,1.51,0.00,30.35,33.71,36.11,13.46,42.61,1015.60,1998.65,2887.65,2639.80,2978.23,600.13,581.12,56.99,0000 0000 0000 0000 000000
2018-08-10 06:22:49,0.00,1.51,0.00,30.37,33.72,36.13,13.52,42.54,1015.57,1998.15,2886.51,2639.03,2977.20,599.80,580.87,57.04,0000 0000 0000 0000 000000
2018-08-10 06:27:50,0.06,1.51,0.00,30.39,33.75,36.15,13.51,42.42,1015.61,1998.03,2885.55,2638.37,2976.51,600.50,581.39,57.09,0000 0000 0000 0000 000000
2018-08-10 06:32:52,0.01,1.51,0.00,30.41,33.76,36.16,13.50,42.50,1015.53,1998.00,2884.81,2637.99,2975.97,599.95,580.80,57.14,0000 0000 0000 0000 000000
2018-08-10 06:37:53,0.06,1.51,0.00,30.43,33.79,36.18,13.46,42.63,1015.48,1998.00,2883.98,2637.31,2975.19,600.11,580.86,57.19,0000 0000 0000 0000 000000
2018-08-10 06:42:54,0.03,1.52,0.00,30.45,33.80,36.20,13.49,42.66,1015.36,1998.00,2883.09,2636.98,2974.67,600.05,580.74,57.24,0000 0000 0000 0000 000000
2018-08-10 06:47:55,0.05,1.52,0.00,30.47,33.82,36.22,13.48,42.66,1015.25,1998.00,2882.31,2636.31,2974.00,600.02,580.61,57.29,0000 0000 0000 0000 000000
2018-08-10 06:52:57,0.03,1.52,0.00,30.50,33.84,36.24,13.48,42.60,1015.18,1997.98,2881.34,2635.93,2973.22,600.07,580.55,57.34,0000 0000 0000 0000 000000
2018-08-10 06:57:58,0.05,1.52,0.00,30.52,33.86,36.26,13.50,42.53,1015.16,1997.96,2880.56,2635.12,2972.64,600.36,580.80,57.39,0000 0000 0000 0000 000000
2018-08-10 07:02:59,0.02,1.52,0.00,30.54,33.88,36.27,13.40,42.54,1015.16,1997.90,2879.77,2634.83,2972.00,599.88,580.18,57.44,0000 0000 0000 0000 000000
2018-08-10 07:08:01,0.04,1.53,0.00,30.56,33.90,36.29,13.44,42.49,1015.15,1997.86,2879.00,2634.10,2971.29,599.76,580.14,57.49,0000 0000 0000 0000 000000
2018-08-10 07:13:02,0.03,1.53,0.00,30.59,33.91,36.31,13.46,42.48,1015.15,1997.57,2878.15,2633.59,2970.50,599.90,580.28,57.55,0000 0000 0000 0000 000000
2018-08-10 07:18:03,-0.00,1.53,0.00,30.62,33.94,36.32,13.41,42.38,1015.15,1997.26,2877.32,2632.99,2969.85,599.62,579.89,57.60,0000 0000 0000 0000 000000
2018-08-10 07:23:04,0.05,1.53,0.00,30.64,33.95,36.35,13.52,42.63,1015.15,1997.03,2876.42,2632.25,2969.03,599.94,580.25,57.65,0000 0000 0000 0000 000000
2018-08-10 07:28:05,0.05,1.53,0.00,30.67,33.97,36.37,13.40,42.61,1015.15,1997.01,2875.39,2631.67,2968.18,599.94,580.20,57.70,0000 0000 0000 0000 000000
2018-08-10 07:33:07,0.06,1.54,0.00,30.70,34.00,36.39,13.46,42.64,1015.15,1997.01,2874.10,2630.84,2967.28,600.18,580.33,57.75,0000 0000 0000 0000 000000
2018-08-10 07:38:08,0.09,1.54,0.00,30.72,34.01,36.41,13.49,42.54,1015.15,1997.00,2872.32,2629.76,2965.96,600.11,580.20,57.80,0000 0000 0000 0000 000000
2018-08-10 07:43:09,0.12,1.55,0.00,30.75,34.03,36.42,13.39,42.49,1015.15,1997.00,2869.99,2628.50,2964.50,599.73,579.70,57.85,0000 0000 0000 0000 000000
2018-08-10 07:48:11,0.08,1.55,0.00,30.78,34.06,36.45,13.47,42.61,1015.15,1997.00,2868.06,2627.22,2963.07,600.03,580.01,57.90,0000 0000 0000 0000 000000
2018-08-10 07:53:12,0.11,1.56,0.00,30.81,34.08,36.46,13.46,42.60,1015.14,1997.00,2866.35,2626.09,2961.82,600.07,579.98,57.95,0000 0000 0000 0000 000000
2018-08-10 07:58:14,0.12,1.56,0.00,30.83,34.10,36.49,13.52,42.53,1015.14,1996.97,2864.04,2624.61,2960.01,600.16,580.00,58.00,0000 0000 0000 0000 000000
2018-08-10 08:03:15,0.07,1.57,0.00,30.86,34.12,36.51,13.36,42.47,1015.10,1996.94,2862.47,2623.68,2958.87,600.16,579.64,58.05,0000 0000 0000 0000 000000
2018-08-10 08:08:16,0.06,1.57,0.00,30.89,34.15,36.54,13.44,42.50,1015.07,1996.78,2860.97,2622.78,2957.63,600.18,579.85,58.10,0000 0000 0000 0000 000000
2018-08-10 08:13:18,0.19,1.58,0.00,30.93,34.17,36.56,13.55,42.67,1014.93,1996.45,2857.59,2619.84,2954.30,600.23,579.69,58.15,0000 0000 0000 0000 000000
2018-08-10 08:18:19,0.03,1.58,0.00,30.95,34.20,36.58,13.49,42.56,1014.74,1996.21,2856.32,2618.96,2953.16,600.14,579.52,58.20,0000 0000 0000 0000 000000
2018-08-10 08:23:20,0.05,1.59,0.00,30.97,34.22,36.61,13.39,42.52,1014.69,1996.11,2855.47,2618.20,2952.45,599.83,579.19,58.25,0000 0000 0000 0000 000000
2018-08-10 08:28:21,0.04,1.59,0.00,31.00,34.25,36.63,13.41,42.52,1014.72,1996.06,2854.42,2617.63,2951.68,599.83,579.18,58.30,0000 0000 0000 0000 000000
2018-08-10 08:33:23,0.03,1.59,0.00,31.02,34.27,36.65,13.50,42.55,1014.70,1996.00,2853.70,2617.00,2950.95,600.51,579.47,58.35,0000 0000 0000 0000 000000
2018-08-10 08:38:24,0.06,1.59,0.00,31.05,34.29,36.67,13.42,42.48,1014.68,1996.00,2852.83,2616.36,2950.10,600.32,579.50,58.40,0000 0000 0000 0000 000000
2018-08-10 08:43:25,0.05,1.60,0.00,31.08,34.31,36.70,13.46,42.48,1014.67,1996.00,2851.89,2615.80,2949.33,599.70,578.85,58.45,0000 0000 0000 0000 000000
2018-08-10 08:48:27,0.04,1.60,0.00,31.10,34.34,36.73,13.47,42.55,1014.68,1995.95,2851.03,2615.05,2948.65,599.93,578.99,58.51,0000 0000 0000 0000 000000
2018-08-10 08:53:28,0.04,1.60,0.00,31.12,34.36,36.75,13.46,42.57,1014.66,1995.87,2850.17,2614.51,2947.91,600.20,579.15,58.56,0000 0000 0000 0000 000000
2018-08-10 08:58:29,0.00,1.60,0.00,31.15,34.38,36.77,13.45,42.64,1014.66,1995.46,2849.22,2613.96,2947.06,600.02,578.89,58.61,0000 0000 0000 0000 000000
2018-08-10 09:03:30,0.04,1.60,0.00,31.16,34.40,36.79,13.44,42.51,1014.66,1995.18,2848.37,2613.19,2946.35,600.03,579.02,58.66,0000 0000 0000 0000 000000
2018-08-10 09:08:32,0.05,1.60,0.00,31.19,34.43,36.81,13.35,42.58,1014.66,1995.03,2847.42,2612.63,2945.51,599.84,578.78,58.71,0000 0000 0000 0000 000000
2018-08-10 09:13:33,0.06,1.61,0.00,31.21,34.45,36.84,13.45,42.56,1014.66,1995.00,2846.14,2611.82,2944.50,600.03,578.87,58.76,0000 0000 0000 0000 000000
2018-08-10 09:18:34,0.34,1.62,0.00,31.24,34.47,36.86,13.47,42.48,1014.66,1995.00,2841.78,2608.31,2940.72,600.52,579.19,58.81,0000 0000 0000 0000 000000
2018-08-10 09:23:36,0.08,1.63,0.00,31.26,34.50,36.88,13.44,42.38,1014.66,1994.96,2839.18,2606.45,2938.49,599.90,578.70,58.86,0000 0000 0000 0000 000000
2018-08-10 09:28:37,0.03,1.63,0.00,31.28,34.52,36.90,13.42,42.42,1014.66,1994.71,2837.86,2605.57,2937.39,600.15,578.88,58.91,0000 0000 0000 0000 000000
2018-08-10 09:33:38,0.04,1.63,0.00,31.31,34.55,36.92,13.48,42.59,1014.66,1994.42,2836.67,2604.83,2936.46,600.38,579.04,58.96,0000 0000 0000 0000 000000
2018-08-10 09:38:39,0.03,1.64,0.00,31.33,34.57,36.95,13.42,42.61,1014.66,1994.16,2835.71,2604.06,2935.73,600.06,578.64,59.01,0000 0000 0000 0000 000000
2018-08-10 09:43:41,0.06,1.64,0.00,31.36,34.59,36.97,13.44,42.55,1014.66,1994.02,2834.59,2603.39,2934.72,599.90,578.52,59.06,0000 0000 0000 0000 000000
2018-08-10 09:48:42,0.04,1.64,0.00,31.38,34.62,37.00,13.42,42.64,1014.66,1994.00,2833.55,2602.72,2933.89,599.87,578.38,59.11,0000 0000 0000 0000 000000
2018-08-10 09:53:43,0.09,1.64,0.00,31.41,34.64,37.02,13.41,42.58,1014.66,1994.00,2832.07,2601.75,2932.73,599.82,578.31,59.16,0000 0000 0000 0000 000000
2018-08-10 09:58:44,0.09,1.65,0.00,31.44,34.67,37.04,13.38,42.50,1014.66,1993.97,2830.37,2600.59,2931.48,599.81,578.18,59.21,0000 0000 0000 0000 000000
2018-08-10 10:03:46,0.07,1.65,0.00,31.46,34.70,37.06,13.44,42.58,1014.66,1993.82,2828.60,2599.50,2930.00,599.91,578.28,59.26,0000 0000 0000 0000 000000
2018-08-10 10:08:47,0.06,1.66,0.00,31.47,34.72,37.09,13.38,42.54,1014.66,1993.36,2826.79,2598.29,2928.64,599.78,578.12,59.31,0000 0000 0000 0000 000000
2018-08-10 10:13:48,0.07,1.66,0.00,31.50,34.75,37.12,13.34,42.54,1014.65,1993.10,2825.01,2597.16,2927.40,599.88,578.05,59.36,0000 0000 0000 0000 000000
2018-08-10 10:18:50,0.08,1.66,0.00,31.52,34.77,37.14,13.40,42.53,1014.65,1993.01,2823.25,2596.03,2926.00,599.74,578.09,59.42,0000 0000 0000 0000 000000
2018-08-10 10:23:51,0.10,1.67,0.00,31.52,34.80,37.17,13.40,42.49,1014.65,1993.00,2821.58,2594.92,2924.71,599.96,578.23,59.47,0000 0000 0000 0000 000000
2018-08-10 10:28:52,0.11,1.67,0.00,31.55,34.82,37.19,13.48,42.58,1014.65,1993.00,2819.66,2593.70,2923.31,600.24,578.44,59.52,0000 0000 0000 0000 000000
2018-08-10 10:33:53,0.13,1.68,0.00,31.55,34.85,37.21,13.35,42.38,1014.65,1993.00,2817.33,2592.18,2921.47,599.82,578.16,59.57,0000 0000 0000 0000 000000
2018-08-10 10:38:54,0.11,1.69,0.00,31.57,34.87,37.24,13.42,42.50,1014.63,1992.96,2815.24,2590.61,2919.67,600.20,578.27,59.62,0000 0000 0000 0000 000000
2018-08-10 10:43:56,0.08,1.69,0.00,31.60,34.90,37.26,13.49,42.58,1014.49,1992.85,2813.38,2589.33,2918.24,600.28,578.28,59.67,0000 0000 0000 0000 000000
2018-08-10 10:48:57,0.04,1.70,0.00,31.61,34.92,37.29,13.45,42.51,1014.37,1992.39,2811.67,2588.19,2916.86,600.49,578.37,59.72,0000 0000 0000 0000 000000
2018-08-10 10:53:58,0.06,1.70,0.00,31.62,34.94,37.32,13.38,42.54,1014.34,1992.23,2810.26,2587.31,2915.75,600.00,577.88,59.77,0000 0000 0000 0000 000000
2018-08-10 10:58:59,0.08,1.70,0.00,31.64,34.96,37.35,11.70,37.23,1014.40,1992.09,2829.85,2601.00,2933.59,531.92,512.31,0.00,0000 0000 0000 0000 000002
2018-08-10 11:04:01,0.04,0.00,0.00,31.66,35.00,37.39,13.28,46.28,1014.35,1993.99,3437.50,3028.33,3490.67,596.78,574.78,0.01,0000 0000 0000 0000 000000
2018-08-10 11:09:02,0.05,0.00,0.00,31.70,35.01,37.41,13.51,46.23,1014.30,1993.95,3431.54,3025.40,3487.58,600.10,577.86,0.06,0000 0000 0000 0000 000000
2018-08-10 11:14:03,0.07,0.01,0.00,31.74,35.03,37.42,13.51,46.29,1014.33,1993.75,3427.85,3023.19,3484.55,599.96,577.68,0.11,0000 0000 0000 0000 000000
2018-08-10 11:19:04,0.08,0.01,0.00,31.77,35.05,37.45,13.51,46.26,1014.51,1993.35,3425.01,3021.49,3482.24,600.26,577.85,0.16,0000 0000 0000 0000 000000
2018-08-10 11:24:06,0.08,0.02,0.00,31.79,35.07,37.47,13.40,46.23,1014.59,1993.10,3422.80,3020.19,3480.44,600.07,577.76,0.21,0000 0000 0000 0000 000000
2018-08-10 11:29:07,0.07,0.02,0.00,31.81,35.09,37.50,13.44,46.11,1014.43,1993.02,3420.98,3019.12,3478.96,600.18,577.69,0.26,0000 0000 0000 0000 000000
2018-08-10 11:34:08,0.07,0.02,0.00,31.82,35.11,37.51,13.46,46.08,1014.34,1993.01,3419.54,3018.20,3477.68,600.12,577.60,0.31,0000 0000 0000 0000 000000
2018-08-10 11:39:09,0.06,0.03,0.00,31.82,35.12,37.53,13.46,46.19,1014.24,1993.00,3418.04,3017.32,3476.42,600.04,577.42,0.36,0000 0000 0000 0000 000000
2018-08-10 11:44:11,0.05,0.03,0.00,31.82,35.14,37.54,13.40,46.06,1014.20,1993.00,3416.73,3016.63,3475.35,599.81,577.25,0.41,0000 0000 0000 0000 000000
2018-08-10 11:49:12,0.04,0.03,0.00,31.82,35.15,37.56,13.42,46.06,1014.21,1993.00,3415.51,3015.93,3474.26,600.20,577.69,0.46,0000 0000 0000 0000 000000
2018-08-10 11:54:13,0.05,0.04,0.00,31.80,35.17,37.57,13.44,46.08,1014.19,1993.00,3414.34,3015.10,3473.23,599.96,577.33,0.51,0000 0000 0000 0000 000000
2018-08-10 11:59:14,0.05,0.04,0.00,31.79,35.18,37.59,13.44,46.05,1014.18,1992.97,3413.02,3014.35,3472.21,599.81,577.38,0.56,0000 0000 0000 0000 000000
2018-08-10 12:04:16,0.05,0.04,0.00,31.76,35.20,37.60,13.46,46.18,1014.18,1992.87,3411.70,3013.58,3471.07,600.01,577.59,0.61,0000 0000 0000 0000 000000
2018-08-10 12:09:17,0.03,0.04,0.00,31.73,35.20,37.61,13.51,46.08,1014.18,1992.61,3410.30,3012.72,3469.87,600.29,577.84,0.66,0000 0000 0000 0000 000000
2018-08-10 12:14:18,0.05,0.04,0.00,31.69,35.20,37.61,13.41,46.13,1014.18,1992.50,3408.90,3012.02,3468.84,599.88,577.49,0.71,0000 0000 0000 0000 000000
2018-08-10 12:19:19,0.04,0.05,0.00,31.65,35.22,37.62,13.50,46.17,1014.16,1992.41,3407.59,3011.23,3467.83,600.09,577.72,0.76,0000 0000 0000 0000 000000
2018-08-10 12:24:21,0.04,0.05,0.00,31.61,35.22,37.62,13.45,46.08,1014.02,1992.25,3406.43,3010.58,3466.82,600.01,577.72,0.81,0000 0000 0000 0000 000000
2018-08-10 12:29:22,0.03,0.05,0.00,31.58,35.22,37.62,13.42,46.09,1013.78,1992.21,3405.25,3009.96,3465.89,600.10,577.69,0.86,0000 0000 0000 0000 000000
2018-08-10 12:34:23,0.06,0.06,0.00,31.55,35.22,37.62,13.48,46.11,1013.73,1992.33,3404.09,3009.15,3465.04,600.18,577.81,0.91,0000 0000 0000 0000 000000
2018-08-10 12:39:25,0.07,0.06,0.00,31.53,35.22,37.63,13.47,45.97,1013.71,1992.47,3402.91,3008.57,3464.09,600.17,577.64,0.96,0000 0000 0000 0000 000000
2018-08-10 12:44:26,0.02,0.06,0.00,31.50,35.22,37.62,13.41,45.96,1013.72,1992.23,3401.56,3007.91,3462.97,599.99,577.73,1.01,0000 0000 0000 0000 000000
2018-08-10 12:49:27,0.08,0.06,0.00,31.49,35.22,37.62,13.47,46.01,1013.72,1992.27,3399.93,3006.55,3461.31,599.96,577.77,1.07,0000 0000 0000 0000 000000
2018-08-10 12:54:28,0.36,0.08,0.00,31.47,35.22,37.61,13.51,46.11,1013.71,1992.22,3394.51,3001.09,3454.80,600.14,577.99,1.12,0000 0000 0000 0000 000000